Location: Easter Hill Village
(37.9235°N, 122.3444°W)
Time: 05:40:37
(UTC+00:00)

Cosmos 1500 - Pass Details

Date: 16 September 2019
Orbit: 500 x 521 km, 82.5° (Epoch: 19 October)

Event Time Altitude Azimuth Distance (km) Brightness Sun altitude
Rises 12:57:44 0° 348° (NNW) 2,599 6.8 -11.4°
Reaches altitude 10° 12:59:52 10° 344° (NNW) 1,711 5.8 -11.0°
Maximum altitude 13:03:33 58° 266° (W) 591 3.1 -10.3°
Drops below altitude 10° 13:07:13 10° 187° (S) 1,703 5.7 -9.6°
Sets 13:09:20 0° 183° (S) 2,585 6.6 -9.2°
